Regional Weather Roundup
Issued by NWS Little Rock, AR

Home | Current Version | Previous Version | Graphics & Text | Print | Product List | Glossary On
Versions: 1 2 3 4 5 6 7 8 9 10 11 12 13 14 15 16 17 18 19 20 21 22 23 24 25 26 27 28 29 30 31 32
000
ASUS44 KLZK 212205
RWRLZK

WEATHER ROUNDUP FOR ARKANSAS
NATIONAL WEATHER SERVICE LITTLE ROCK AR
400 PM CST TUE FEB 21 2017

NOTE: "FAIR" INDICATES FEW OR NO CLOUDS BELOW 12,000 FEET WITH NO
SIGNIFICANT WEATHER AND/OR OBSTRUCTIONS TO VISIBILITY.

ARZ001-003-010-029-212300-
NORTHWEST ARKANSAS

CITY           SKY/WX    TMP DP  RH WIND       PRES   REMARKS
FAYETTEVILLE   CLOUDY    65  54  67 NE5       29.88R
FORT SMITH     PTSUNNY   72  52  49 NW15G22   29.84S
HARRISON       CLOUDY    58  57  97 N5        29.88S
BENTONVILLE    CLOUDY    66  52  59 N9        29.89S
ROGERS         CLOUDY    65  54  67 NE13      29.89S
SILOAM SPGS    MOSUNNY   68  52  56 N15       29.88S
HIGHFILL       CLOUDY    69  54  58 N15       29.87F
SPRINGDALE     CLOUDY    66  54  63 N12G23    29.89S
$$

ARZ004-005-016-212300-
NORTH CENTRAL ARKANSAS

CITY           SKY/WX    TMP DP  RH WIND       PRES   REMARKS
BATESVILLE     CLOUDY    59  57  94 CALM      29.85S
FLIPPIN        CLOUDY    61  54  77 N6        29.84R
MTN HOME       LGT RAIN  58  57  97 VRB3      29.85S FOG
$$

ARZ040-041-212300-
WEST CENTRAL ARKANSAS

CITY           SKY/WX    TMP DP  RH WIND       PRES   REMARKS
MENA           CLOUDY    64  61  88 W6        29.86F
MOUNT IDA      CLOUDY    60  58  92 CALM      29.82S
$$

ARZ009-017-025-026-028-212300-
NORTHEAST ARKANSAS

CITY           SKY/WX    TMP DP  RH WIND       PRES   REMARKS
CORNING        CLOUDY    63  63 100 NE10      29.86S
JONESBORO      CLOUDY    65  60  84 E3        29.84S
NEWPORT        CLOUDY    67  59  75 S8        29.84
WALNUT RIDGE   PTSUNNY   64  57  77 NE9       29.84S
BLYTHEVILLE    CLOUDY    65  59  81 SE9       29.87R
NW BLYTHEVILLE LGT RAIN  63  61  94 CALM      29.85F
$$

ARZ022-023-033-042-044-212300-
CENTRAL ARKANSAS

CITY           SKY/WX    TMP DP  RH WIND       PRES   REMARKS
LITTLE ROCK    LGT RAIN  61  61 100 CALM      29.83R FOG
N LITTLE ROCK    N/A     61  59  95 CALM      29.83R
JACKSONVILLE   LGT RAIN  61  61 100 E3        29.82R FOG
SEARCY         LGT RAIN  62  60  93 SE8       29.85R
HOT SPRINGS    LGT RAIN  60  60 100 NW3       29.84R
RUSSELLVILLE   CLOUDY    60  58  92 NW5       29.84R
CLINTON        CLOUDY    61  57  88 CALM      29.85R
$$

ARZ036-212300-
EAST ARKANSAS

CITY           SKY/WX    TMP DP  RH WIND       PRES   REMARKS
WEST MEMPHIS   CLOUDY    66  58  75 S10       29.84
$$

ARZ050-053-066-070-073-212300-
SOUTHWEST ARKANSAS

CITY           SKY/WX    TMP DP  RH WIND       PRES   REMARKS
ARKADELPHIA    LGT RAIN  61  60  97 N3        29.84S
CAMDEN         LGT RAIN  61  57  88 W3        29.84R
EL DORADO      LGT RAIN  60  59  96 SW7       29.85R
DE QUEEN       CLOUDY    69  55  60 N8        29.83S
$$

ARZ056-057-069-212300-
SOUTHEAST ARKANSAS

CITY           SKY/WX    TMP DP  RH WIND       PRES   REMARKS
PINE BLUFF     CLOUDY    63  59  87 S10       29.82S
STUTTGART      CLOUDY    64  52  63 SE6       29.83S
MONTICELLO     LGT RAIN  62  59  90 W6        29.83R

$$






USA.gov is the U.S. government's official web portal to all federal, state and local government web resources and services.